• Join FlightAware (Why Join?)
  • Login
  • US Flag GB Flag 
04:40 EDT


 

Airport Tracker/Info


-or-


 

Live Flight TrackerFlight Track Log ✈ N8317F ✈ 29-Dec-2013 ✈ KACY - KFRG

Flight Track Log - Related Links

Times and Time Zones

All times are in EST time to prevent confusion due to time zone crossing. See the N8317F flight status page for this flight to view local times or setup timezone preferences in your user account.

Time Position Orientation Groundspeed Altitude Reporting Facility
EST Latitude Longitude Course Direction KTS MPH feet Rate Location/Type
23:13 39.6256 -74.4264 34° Northeast  Level Estimated
23:14 39.6596 -74.4247 North  Level FlightAware Approximate
23:15 39.6873 -74.3990 35° Northeast  Level Estimated
23:16 39.7193 -74.3838 20° North  Level FlightAware Approximate
23:17 39.7513 -74.3686 20° North  Level FlightAware Approximate
23:18 39.7833 -74.3534 20° North  Level FlightAware Approximate
23:19 39.8153 -74.3382 20° North  Level FlightAware Approximate
23:20 39.8473 -74.3230 20° North  Level FlightAware Approximate
23:21 39.8792 -74.3077 20° North  Level FlightAware Approximate
23:22 39.9059 -74.2801 43° Northeast  Level Estimated
23:23 39.9356 -74.2584 29° Northeast  Level FlightAware Approximate
23:24 39.9653 -74.2366 29° Northeast  Level FlightAware Approximate
23:25 39.9917 -74.2086 21° North  Level Estimated
23:26 40.0230 -74.1909 23° Northeast  Level FlightAware Approximate
23:27 40.0542 -74.1732 23° Northeast  Level FlightAware Approximate
23:28 40.0802 -74.1444 49° Northeast  Level Estimated
23:29 40.1103 -74.1236 28° Northeast  Level FlightAware Approximate
23:30 40.1360 -74.0944 28° Northeast  Level Estimated
23:31 40.1662 -74.0740 27° Northeast  Level FlightAware Approximate
23:32 40.1965 -74.0535 27° Northeast  Level FlightAware Approximate
23:33 40.2267 -74.0330 27° Northeast  Level FlightAware Approximate
23:34 40.2570 -74.0125 27° Northeast  Level FlightAware Approximate
23:35 40.2872 -73.9919 27° Northeast  Level FlightAware Approximate
23:35 40.1833 -74.1000 27° Northeast 123 142 5,000  Level New York TRACON
23:36 40.3174 -73.9714 27° Northeast  Level FlightAware Approximate
23:36 40.2167 -74.0667 37° Northeast 123 142 5,000  Level New York TRACON
23:37 40.3476 -73.9508 27° Northeast  Level FlightAware Approximate
23:37 40.2500 -74.0500 21° North 122 140 5,000  Level New York TRACON
23:38 40.3778 -73.9302 27° Northeast  Level FlightAware Approximate
23:38 40.2833 -74.0333 21° North 114 131 5,000  Level New York TRACON
23:39 40.4081 -73.9096 27° Northeast  Level FlightAware Approximate
23:39 40.3000 -74.0167 37° Northeast 115 132 5,000  Level New York TRACON
23:40 40.4383 -73.8889 27° Northeast  Level FlightAware Approximate
23:40 40.3333 -74.0000 21° North 118 136 5,000  Level New York TRACON
23:41 40.3667 -73.9667 37° Northeast 135 155 4,500 -540 Descending New York TRACON
23:42 40.4000 -73.9500 21° North 131 151 4,000 -240 Descending New York TRACON
23:43 40.4333 -73.9333 21° North 116 133 4,100 -300 Climbing New York TRACON
23:45 40.5000 -73.8833 30° Northeast 138 159 3,100 -360 Descending New York TRACON
23:46 40.5167 -73.8500 57° Northeast 139 160 3,100  Level New York TRACON
23:47 40.5333 -73.8000 66° East 150 173 3,100  Level New York TRACON
23:48 40.5500 -73.7500 66° East 145 167 3,100  Level New York TRACON
23:49 40.5667 -73.7000 66° East 141 162 3,100  Level New York TRACON
23:50 40.5833 -73.6500 66° East 144 166 3,100  Level New York TRACON
23:51 40.6000 -73.6167 57° Northeast 133 153 3,100 -300 Level New York TRACON
23:52 40.6333 -73.5667 49° Northeast 140 161 2,500 -600 Descending New York TRACON
23:53 40.6500 -73.5333 57° Northeast 149 171 2,000 -300 Descending New York TRACON
23:54 40.6833 -73.5000 37° Northeast 128 147 2,000  Level New York TRACON
23:55 40.7000 -73.4500 66° East 136 157 2,000 -120 Level New York TRACON
23:56 40.7000 -73.4000 90° East 135 155 1,800 -420 Descending New York TRACON
23:57 40.7167 -73.3667 57° Northeast 121 139 1,200 -420 Descending New York TRACON
23:58 40.7167 -73.3833 270° West 77 89 1,000 -120 Descending New York TRACON
23:59 40.7333 -73.4167 303° West 91 105 1,000 60 Level New York TRACON
00:00 40.7333 -73.4333 270° West 95 109 1,200  Climbing New York TRACON
00:01 40.7000 -73.4167 159° South 136 157 1,000 -300 Descending New York TRACON
00:02 40.7000 -73.3833 90° East 95 109 700 -360 Descending New York TRACON
00:03 40.7167 -73.4000 323° Northwest 75 86 400 -360 Descending New York TRACON